| time (UTC) | temp F | wind direction | speed knots | gust knots | rain 1hr in | rain 24hr in | rain mn in | humidity % | barometer mb |
| 20260506174550 | 88 | 0 | 0.0 | 5.2 | 0.00 | 0.00 | 0.00 | 49 | 1015.1 |
| 20260506173043 | 87 | 247 | 0.0 | 6.1 | 0.00 | 0.00 | 0.00 | 52 | 1015.5 |
| 20260506171550 | 86 | 0 | 0.9 | 6.1 | 0.00 | 0.00 | 0.00 | 51 | 1015.8 |
| 20260506170103 | 86 | 0 | 0.0 | 7.8 | 0.00 | 0.00 | 0.00 | 50 | 1016.1 |
| 20260506164548 | 86 | 278 | 0.0 | 3.5 | 0.00 | 0.00 | 0.00 | 55 | 1016.1 |
| 20260506163109 | 84 | 62 | 0.0 | 4.3 | 0.00 | 0.00 | 0.00 | 56 | 1016.3 |
| 20260506161548 | 84 | 326 | 0.9 | 6.1 | 0.00 | 0.00 | 0.00 | 55 | 1016.2 |
| 20260506160051 | 83 | 0 | 0.0 | 5.2 | 0.00 | 0.00 | 0.00 | 55 | 1016.5 |
| 20260506154608 | 83 | 296 | 0.0 | 4.3 | 0.00 | 0.00 | 0.00 | 58 | 1016.6 |
| 20260506153051 | 82 | 250 | 0.0 | 5.2 | 0.00 | 0.00 | 0.00 | 61 | 1016.5 |
| 20260506151543 | 81 | 139 | 0.0 | 4.3 | 0.00 | 0.00 | 0.00 | 60 | 1016.7 |
| 20260506150047 | 80 | 0 | 0.0 | 7.0 | 0.00 | 0.00 | 0.00 | 62 | 1016.7 |
| 20260506144549 | 80 | 261 | 0.9 | 7.8 | 0.00 | 0.00 | 0.00 | 61 | 1016.4 |
| 20260506143059 | 79 | 0 | 0.0 | 3.5 | 0.00 | 0.00 | 0.00 | 64 | 1016.3 |
| 20260506141550 | 78 | 245 | 0.9 | 4.3 | 0.00 | 0.00 | 0.00 | 64 | 1016.2 |
| 20260506140054 | 78 | 0 | 0.0 | 1.7 | 0.00 | 0.00 | 0.00 | 66 | 1016.2 |
| 20260506134553 | 76 | 250 | 0.9 | 4.3 | 0.00 | 0.00 | 0.00 | 67 | 1016.1 |
| 20260506133050 | 75 | 0 | 0.0 | 3.5 | 0.00 | 0.00 | 0.00 | 70 | 1015.8 |
| 20260506131551 | 74 | 0 | 0.0 | 2.6 | 0.00 | 0.00 | 0.00 | 73 | 1015.7 |
| 20260506124549 | 71 | 0 | 0.0 | 1.7 | 0.00 | 0.00 | 0.00 | 79 | 1015.9 |
| 20260506123049 | 69 | 0 | 0.0 | 0.9 | 0.00 | 0.00 | 0.00 | 83 | 1015.8 |
| 20260506121547 | 67 | 0 | 0.0 | 1.7 | 0.00 | 0.00 | 0.00 | 88 | 1015.3 |
| 20260506120057 | 65 | 0 | 0.0 | 0.0 | 0.00 | 0.00 | 0.00 | 94 | 1015.6 |
| 20260506114606 | 64 | 0 | 0.0 | 0.0 | 0.00 | 0.00 | 0.00 | 96 | 1015.5 |
| 20260506113053 | 62 | 0 | 0.0 | 0.0 | 0.00 | 0.00 | 0.00 | 97 | 1015.3 |
| 20260506111548 | 59 | 0 | 0.0 | 0.0 | 0.00 | 0.00 | 0.00 | 96 | 1015.1 |
| 20260506110055 | 59 | 0 | 0.0 | 0.0 | 0.00 | 0.00 | 0.00 | 96 | 1015.1 |
| 20260506104543 | 59 | 0 | 0.0 | 0.0 | 0.00 | 0.00 | 0.00 | 96 | 1015.0 |
| 20260506103049 | 59 | 0 | 0.0 | 0.0 | 0.00 | 0.00 | 0.00 | 96 | 1014.7 |
| 20260506101551 | 59 | 0 | 0.0 | 0.0 | 0.00 | 0.00 | 0.00 | 96 | 1014.9 |
| 20260506100048 | 59 | 0 | 0.0 | 0.0 | 0.00 | 0.00 | 0.00 | 96 | 1014.9 |
| 20260506094606 | 59 | 0 | 0.0 | 0.0 | 0.00 | 0.00 | 0.00 | 96 | 1015.1 |
| 20260506093054 | 59 | 0 | 0.0 | 0.0 | 0.00 | 0.00 | 0.00 | 96 | 1015.0 |
| 20260506091556 | 59 | 0 | 0.0 | 0.0 | 0.00 | 0.00 | 0.00 | 95 | 1014.9 |
| 20260506090041 | 59 | 0 | 0.0 | 0.0 | 0.00 | 0.00 | 0.00 | 95 | 1014.8 |
| 20260506084547 | 59 | 0 | 0.0 | 0.0 | 0.00 | 0.00 | 0.00 | 95 | 1014.7 |
| 20260506083045 | 59 | 0 | 0.0 | 0.0 | 0.00 | 0.00 | 0.00 | 95 | 1014.7 |
| 20260506081547 | 59 | 0 | 0.0 | 0.0 | 0.00 | 0.00 | 0.00 | 95 | 1014.7 |
| 20260506073048 | 59 | 0 | 0.0 | 0.0 | 0.00 | 0.00 | 0.00 | 94 | 1014.8 |
| 20260506071546 | 59 | 0 | 0.0 | 0.0 | 0.00 | 0.00 | 0.00 | 94 | 1014.8 |
| 20260506061539 | 60 | 0 | 0.0 | 0.0 | 0.00 | 0.00 | 0.00 | 92 | 1015.1 |
| 20260506044550 | 61 | 0 | 0.0 | 0.0 | 0.00 | 0.00 | 0.00 | 89 | 1015.7 |
| 20260506043049 | 61 | 0 | 0.0 | 0.0 | 0.00 | 0.00 | 0.00 | 89 | 1015.7 |
| 20260506041556 | 61 | 0 | 0.0 | 0.0 | 0.00 | 0.00 | 0.00 | 88 | 1015.7 |
| 20260506040100 | 61 | 0 | 0.0 | 0.0 | 0.00 | 0.00 | 0.00 | 88 | 1015.7 |
| 20260506034604 | 61 | 0 | 0.0 | 0.0 | 0.00 | 0.00 | 0.00 | 87 | 1015.9 |
| 20260506033050 | 62 | 0 | 0.0 | 0.0 | 0.00 | 0.00 | 0.00 | 86 | 1016.0 |
| 20260506031557 | 62 | 0 | 0.0 | 0.0 | 0.00 | 0.00 | 0.00 | 85 | 1016.1 |
| 20260506030052 | 62 | 0 | 0.0 | 0.0 | 0.00 | 0.00 | 0.00 | 84 | 1015.9 |
| 20260506024543 | 63 | 0 | 0.0 | 0.0 | 0.00 | 0.00 | 0.00 | 83 | 1015.9 |
| 20260506023038 | 63 | 0 | 0.0 | 0.0 | 0.00 | 0.00 | 0.00 | 81 | 1015.7 |
| 20260506021550 | 64 | 0 | 0.0 | 0.0 | 0.00 | 0.00 | 0.00 | 80 | 1015.7 |
| 20260506020042 | 65 | 0 | 0.0 | 0.0 | 0.00 | 0.00 | 0.00 | 79 | 1015.6 |
| 20260506014541 | 65 | 0 | 0.0 | 0.0 | 0.00 | 0.00 | 0.00 | 77 | 1015.5 |
| 20260506013044 | 65 | 0 | 0.0 | 0.0 | 0.00 | 0.00 | 0.00 | 75 | 1015.5 |
| 20260506011545 | 66 | 0 | 0.0 | 0.9 | 0.00 | 0.00 | 0.00 | 74 | 1015.6 |
| 20260506010046 | 67 | 0 | 0.0 | 0.9 | 0.00 | 0.00 | 0.00 | 73 | 1015.4 |
| 20260506004551 | 67 | 0 | 0.0 | 0.0 | 0.00 | 0.00 | 0.00 | 71 | 1015.4 |
| 20260506003042 | 68 | 0 | 0.0 | 1.7 | 0.00 | 0.00 | 0.00 | 70 | 1015.2 |
| 20260506001549 | 69 | 0 | 0.0 | 3.5 | 0.00 | 0.00 | 0.00 | 68 | 1015.1 |
| 20260506000050 | 70 | 0 | 0.0 | 5.2 | 0.00 | 0.00 | 0.00 | 68 | 1015.0 |
| 20260505234556 | 71 | 0 | 0.0 | 3.5 | 0.00 | 0.00 | 0.00 | 66 | 1015.2 |
| 20260505233043 | 71 | 314 | 0.0 | 5.2 | 0.00 | 0.00 | 0.00 | 63 | 1015.2 |
| 20260505231548 | 72 | 0 | 0.0 | 7.0 | 0.00 | 0.00 | 0.00 | 62 | 1015.1 |
| 20260505230050 | 73 | 0 | 0.9 | 7.0 | 0.00 | 0.00 | 0.00 | 63 | 1015.3 |
| 20260505224549 | 73 | 0 | 0.9 | 6.1 | 0.00 | 0.00 | 0.00 | 63 | 1015.1 |
| 20260505223051 | 74 | 111 | 0.0 | 6.1 | 0.00 | 0.00 | 0.00 | 62 | 1015.1 |
| 20260505221541 | 75 | 254 | 1.7 | 6.1 | 0.00 | 0.00 | 0.00 | 59 | 1015.1 |
| 20260505220042 | 76 | 0 | 0.0 | 6.1 | 0.00 | 0.00 | 0.00 | 59 | 1015.0 |
| 20260505214550 | 75 | 48 | 0.9 | 7.0 | 0.00 | 0.00 | 0.00 | 59 | 1015.2 |
| 20260505213046 | 76 | 122 | 0.0 | 8.7 | 0.00 | 0.00 | 0.00 | 61 | 1015.2 |
| 20260505211544 | 76 | 130 | 2.6 | 7.8 | 0.00 | 0.00 | 0.00 | 60 | 1015.1 |
| 20260505210043 | 76 | 264 | 0.9 | 6.1 | 0.00 | 0.00 | 0.00 | 62 | 1015.1 |
| 20260505204549 | 76 | 22 | 0.0 | 5.2 | 0.00 | 0.00 | 0.00 | 61 | 1015.3 |
| 20260505203055 | 77 | 0 | 0.0 | 6.1 | 0.00 | 0.00 | 0.00 | 61 | 1015.3 |
| 20260505201556 | 77 | 69 | 1.7 | 8.7 | 0.00 | 0.00 | 0.00 | 59 | 1015.6 |
| 20260505200049 | 78 | 209 | 0.0 | 7.8 | 0.00 | 0.00 | 0.00 | 58 | 1015.6 |
| 20260505194606 | 78 | 120 | 0.9 | 7.0 | 0.00 | 0.00 | 0.00 | 58 | 1015.8 |
| 20260505193051 | 78 | 68 | 1.7 | 5.2 | 0.00 | 0.00 | 0.00 | 57 | 1015.8 |
| 20260505191551 | 79 | 38 | 0.0 | 6.1 | 0.00 | 0.00 | 0.00 | 56 | 1016.2 |
| 20260505190045 | 79 | 152 | 1.7 | 9.6 | 0.00 | 0.00 | 0.00 | 53 | 1016.2 |
| 20260505184549 | 78 | 0 | 0.9 | 7.8 | 0.00 | 0.00 | 0.00 | 54 | 1016.2 |
| 20260505183050 | 79 | 0 | 0.9 | 5.2 | 0.00 | 0.00 | 0.00 | 55 | 1016.4 |
| 20260505181556 | 79 | 102 | 0.0 | 8.7 | 0.00 | 0.00 | 0.00 | 55 | 1016.4 |
| 20260505180050 | 79 | 130 | 0.9 | 5.2 | 0.00 | 0.00 | 0.00 | 57 | 1016.4 |